Orbital Elements at Epoch 2459000.5 (2020-May-31.0) TDB
Reference: JPL 23 (heliocentric ecliptic J2000)
Element | Value | Uncertainty (1-sigma) | Units |
e | .1539051251152652 | 2.7879e-08 | |
a | 2.305762526577387 | 6.126e-09 | au |
q | 1.950893856438404 | 6.5029e-08 | au |
i | 5.153134707860015 | 3.4089e-06 | deg |
node | 174.2762471400116 | 3.9396e-05 | deg |
peri | 111.0634960871905 | 4.1903e-05 | deg |
M | 328.7062134117207 | 1.2746e-05 | deg |
tp | 2459111.667005614235 (2020-Sep-19.16700561) | 4.5245e-05 | TDB |
period | 1278.852014543799 3.50 | 5.0965e-06 1.395e-08 | d yr |
n | .2815024693286515 | 1.1219e-09 | deg/d |
Q | 2.660631196716369 | 7.0689e-09 | au |
|
| | Orbit Determination Parameters
Additional Information
|